Wetbulb
39.27 39.64 40.15 40.41 40.19 39.57 39.01 38.98 39.20 38.63 37.65 36.43 36.10 35.87 35.75 35.64 35.49 35.58 35.60 35.44 35.46 35.42 35.22 34.81 34.53 33.74 32.65 31.85 31.44 31.10 30.82 30.65 30.80 31.98 32.68 31.27 29.93 29.37 29.17 28.91 28.66 28.54 28.64 28.80 28.33 28.26 28.29 28.04 28.76 30.30 31.80 32.11 30.99 29.81 28.92 28.85 27.86 27.73 27.93 28.17 28.43 28.06 27.46 26.96 26.94 27.03 27.07 27.05 27.71
38.44 39.02 40.17 41.27 40.71 39.78 39.00 38.70 38.63 38.14 37.41 36.53 36.07 35.49 35.15 35.48 35.29 35.05 34.71 34.43 35.15 35.15 34.79 34.64 33.59 32.19 31.11 31.10 31.27 30.91 30.58 30.65 30.54 30.61 30.54 29.86 29.33 29.07 28.86 28.76 28.51 28.71 28.92 28.85 28.26 28.41 28.52 27.75 28.43 29.98 31.39 31.68 30.30 29.28 28.82 29.08 28.07 27.69 27.60 27.31 27.84 28.12 28.20 28.04 27.85 27.60 27.44 27.64 27.55
37.87 37.99 38.21 38.28 38.06 37.98 37.86 37.35 36.37 35.30 34.64 35.08 35.32 35.21 35.11 35.33 35.27 35.05 34.65 34.08 33.45 33.38 33.55 33.66 32.71 31.79 30.93 30.21 29.98 29.88 29.99 30.42 30.30 29.73 29.25 29.12 28.95 28.77 28.64 28.59 28.35 28.85 29.30 28.92 28.01 27.95 27.98 27.12 28.58 30.57 31.90 31.38 29.37 28.76 28.82 28.68 28.85 28.60 28.08 27.58 28.43 28.94 29.44 30.36 29.26 28.63 28.55 29.16 27.96
36.83 36.79 36.72 36.46 36.12 35.94 36.02 36.39 34.99 34.18 34.04 34.85 34.08 34.17 34.64 34.93 34.93 34.51 33.73 32.62 32.26 32.47 32.58 31.85 31.38 31.19 30.99 30.43 29.87 29.43 29.80 31.40 31.50 30.25 28.94 28.76 28.72 28.62 28.45 28.32 28.32 28.20 27.91 27.53 27.38 27.09 26.78 26.40 28.46 30.10 30.46 28.58 27.68 28.07 28.95 29.53 28.62 28.46 28.58 28.63 29.11 29.23 29.61 30.56 29.75 29.88 30.15 29.93 28.42
35.76 35.87 36.06 35.91 35.19 35.00 34.97 34.55 34.17 33.90 33.96 34.34 34.61 34.52 34.29 34.03 33.73 33.23 33.03 33.68 33.42 33.15 32.57 31.39 30.63 30.68 30.86 30.74 29.68 29.09 29.19 30.07 32.20 30.75 28.58 28.45 28.45 28.31 28.14 28.00 28.02 27.92 27.72 27.46 27.15 26.85 26.52 25.99 28.36 29.42 29.30 28.11 29.03 29.31 28.78 27.55 26.98 27.24 28.02 29.18 29.53 29.68 29.81 30.10 30.24 30.07 29.86 29.82 28.77
35.17 34.75 34.64 34.88 34.38 34.23 34.16 33.71 33.20 33.15 33.36 33.67 33.40 33.11 33.17 33.96 33.63 33.40 33.17 32.93 32.35 32.13 32.37 33.31 32.57 32.32 31.75 29.86 29.07 28.69 28.54 28.34 28.54 28.24 27.95 28.18 28.09 27.99 27.94 27.92 27.72 27.47 27.26 27.12 26.76 26.45 26.08 25.58 28.50 29.58 29.64 29.71 29.26 28.62 27.74 26.57 26.73 26.89 27.38 28.48 29.19 29.35 29.21 28.75 29.50 29.48 28.98 28.20 27.20
35.05 34.64 34.31 34.01 33.78 33.77 33.60 32.74 32.44 32.40 32.48 32.55 31.98 31.64 31.59 31.76 31.58 31.39 31.29 31.55 31.43 31.74 32.44 33.54 31.98 30.93 30.03 28.98 28.67 28.40 28.19 28.01 27.66 27.54 27.66 27.80 27.72 27.76 27.85 27.66 27.35 27.15 27.00 26.72 26.47 26.20 25.77 25.19 28.14 29.85 30.94 31.81 31.15 29.62 27.87 26.51 26.43 26.38 26.67 27.72 28.96 29.22 28.67 27.37 28.08 28.20 27.64 26.24 25.31
34.43 34.09 33.76 33.50 33.45 33.22 32.89 32.55 32.59 32.70 32.67 32.61 31.47 30.90 30.76 30.50 30.64 30.70 30.80 30.82 30.88 31.32 31.71 31.64 29.67 28.68 28.44 28.32 28.20 28.02 27.78 27.64 27.61 27.51 27.45 27.42 27.46 27.53 27.46 27.23 27.10 27.00 26.80 26.41 26.19 25.87 25.67 25.98 28.28 29.01 29.15 29.74 30.72 29.99 28.28 26.39 25.63 25.47 25.86 26.53 28.22 28.48 27.90 27.09 26.77 26.73 26.37 25.39 24.66
33.90 33.36 33.08 33.02 32.97 32.76 32.54 32.34 32.46 32.53 32.31 31.67 31.09 30.83 30.70 30.53 30.41 30.45 30.60 30.79 31.33 31.30 30.83 29.88 28.77 28.20 27.95 27.74 27.66 27.53 27.47 27.42 27.46 27.37 27.30 27.25 27.59 27.58 27.36 27.17 26.96 26.92 26.78 26.40 26.17 25.69 25.63 26.74 28.23 28.56 28.63 29.59 29.77 28.76 27.21 25.57 25.18 25.07 25.35 26.22 27.36 27.48 26.99 26.32 25.80 25.49 25.12 24.70 24.36
33.55 33.07 32.79 32.86 32.55 32.57 32.50 32.13 32.26 32.13 31.82 31.31 31.41 31.80 32.48 33.31 31.56 30.60 30.53 31.31 31.28 30.43 29.33 28.73 28.15 27.88 27.71 27.51 27.37 27.33 27.32 27.22 27.18 27.14 27.16 27.45 28.00 27.68 27.13 26.94 26.71 26.74 26.78 26.46 26.26 25.90 25.95 27.02 27.50 27.32 27.03 27.17 26.67 26.14 25.57 25.13 24.98 24.90 25.55 27.72 27.53 26.54 25.52 25.22 25.05 24.72 24.57 24.95 24.39
33.11 32.86 32.85 32.82 32.54 32.80 32.89 32.23 32.23 31.99 31.48 30.84 30.82 31.09 31.64 32.31 31.04 30.67 30.81 30.83 29.98 29.28 28.62 28.07 27.69 27.64 27.63 27.47 27.25 27.47 27.56 27.06 26.90 26.87 26.91 27.11 27.61 27.25 26.71 26.51 26.44 26.51 26.58 26.51 26.29 26.26 26.62 27.29 27.06 26.57 26.23 26.44 26.13 26.04 25.82 25.38 25.04 24.83 25.13 26.25 25.89 25.38 25.03 25.06 24.86 24.61 24.62 24.87 24.45
32.69 32.40 32.17 32.09 32.07 32.35 32.49 31.97 31.76 31.29 30.68 30.21 30.08 29.96 29.82 29.76 29.96 30.56 30.70 29.69 29.57 29.15 28.58 27.87 27.34 27.24 27.29 27.37 27.22 27.78 27.97 26.82 26.61 26.77 26.94 26.91 26.74 26.57 26.55 26.50 26.50 26.44 26.37 26.28 26.21 26.52 26.87 26.85 26.38 26.19 26.11 25.94 26.40 26.71 26.55 25.60 25.14 25.11 25.24 25.22 25.13 24.98 24.98 25.14 24.92 24.90 24.99 24.97 24.79
32.39 32.10 31.78 31.55 31.69 31.77 31.74 31.40 31.06 30.48 29.96 29.72 29.69 29.73 29.79 29.78 30.41 30.51 29.98 29.12 29.70 29.04 28.05 27.64 27.77 27.42 27.08 27.16 26.96 26.80 26.76 26.70 26.54 26.71 26.88 26.95 26.81 26.69 26.59 26.67 26.64 26.49 26.40 26.38 26.39 26.47 26.56 26.39 25.86 25.83 25.94 25.99 26.90 26.99 26.44 25.40 25.18 25.32 25.58 25.61 25.35 25.18 25.23 25.34 25.16 25.05 24.99 24.83 25.06
31.98 31.81 31.57 31.43 31.53 31.70 31.63 30.94 30.82 30.36 29.78 29.38 29.32 29.26 29.29 29.43 30.49 30.21 29.30 28.36 28.41 27.88 27.22 26.99 28.07 28.32 27.96 27.08 26.91 26.87 26.75 26.63 26.48 26.48 26.67 27.03 26.76 26.63 26.61 26.98 26.61 26.52 26.60 26.81 26.64 26.44 26.19 26.13 25.79 25.61 25.66 25.77 26.19 26.19 25.82 25.36 25.37 25.52 25.67 25.75 25.78 25.77 25.74 25.77 25.27 25.03 24.87 24.74 25.18
31.62 31.48 31.35 31.16 31.12 31.32 31.31 30.61 30.80 30.41 29.82 29.42 29.07 28.84 28.75 29.05 29.93 29.94 29.11 27.74 27.34 26.85 26.53 26.33 27.05 27.82 28.17 27.62 27.15 26.75 26.53 26.38 26.39 26.49 26.66 26.92 26.72 26.56 26.51 26.83 26.67 26.67 26.79 26.84 26.51 26.29 26.16 25.99 25.78 25.56 25.49 25.63 25.79 25.90 25.90 25.69 25.62 25.80 25.84 25.89 25.88 25.89 25.89 25.79 25.27 25.04 24.90 24.79 25.08
31.21 31.08 31.00 30.95 30.77 30.63 30.48 30.27 30.45 30.10 29.58 29.25 28.82 28.54 28.41 28.59 28.81 29.41 29.39 27.85 26.89 26.41 26.19 26.30 26.30 26.22 26.66 28.41 27.96 27.14 26.46 26.35 26.45 26.48 26.55 26.58 26.72 26.68 26.66 26.68 26.85 26.83 26.66 26.40 26.34 26.32 26.22 26.07 25.90 25.61 25.39 25.48 25.76 25.94 26.10 26.10 26.13 26.07 25.99 25.96 25.94 25.84 25.81 25.89 25.70 25.40 25.04 24.97 25.52
30.69 30.61 30.52 30.45 30.18 29.91 29.71 29.51 29.53 29.39 29.12 28.73 28.62 28.54 28.33 28.07 28.09 28.97 29.62 28.69 26.97 26.37 26.42 26.47 26.14 25.98 26.37 27.62 27.90 27.44 26.81 26.56 26.67 26.65 26.63 26.64 26.64 26.66 26.63 26.61 26.92 26.76 26.41 26.04 26.22 26.31 26.31 26.11 25.96 25.65 25.38 25.33 25.82 26.20 26.38 26.43 26.72 26.64 26.42 26.31 26.00 25.63 25.50 26.23 26.02 25.48 25.06 25.09 25.88
30.07 30.02 29.96 29.82 29.37 29.07 28.89 28.63 28.64 28.63 28.63 28.55 28.59 28.37 27.93 27.37 27.39 27.62 27.93 28.28 26.80 26.43 26.61 26.60 25.98 25.94 26.12 26.41 26.47 27.20 27.72 27.05 26.85 26.71 26.59 26.51 26.26 26.23 26.28 26.37 26.70 26.48 26.02 25.69 25.79 26.05 26.33 26.32 26.08 26.05 25.98 25.93 26.35 26.76 27.03 27.02 27.09 26.87 26.58 26.33 25.80 25.29 24.98 25.27 25.03 24.95 24.96 25.10 26.02
29.46 29.39 29.33 29.14 28.67 28.73 28.93 29.20 28.72 28.53 28.48 28.72 28.59 28.07 27.38 26.84 26.51 26.20 26.16 26.53 27.08 26.83 26.38 26.40 26.12 26.04 26.11 26.39 25.98 27.15 28.21 27.59 26.96 26.58 26.33 26.14 25.91 25.78 25.91 26.17 26.32 26.06 25.68 25.46 25.62 25.85 26.00 26.12 26.21 26.25 26.44 26.82 27.08 27.24 27.35 27.16 27.13 26.83 26.36 25.91 25.36 24.99 24.73 24.51 24.52 24.67 24.87 24.95 25.37
28.87 28.89 28.82 28.68 28.37 28.45 28.79 29.21 28.81 28.66 28.80 29.04 28.43 27.79 27.14 26.69 26.12 26.08 26.12 26.14 27.00 26.52 25.79 26.14 26.22 26.29 26.22 26.16 26.05 26.43 27.03 27.50 26.86 26.39 26.16 25.86 25.69 25.76 25.93 26.08 26.05 25.86 25.59 25.39 25.64 25.78 25.86 26.13 26.35 26.51 26.74 27.15 27.43 27.43 27.30 27.08 26.82 26.35 25.82 25.35 25.09 24.85 24.65 24.57 24.60 24.65 24.63 24.66 24.57
28.59 28.63 28.55 28.29 28.15 28.30 28.43 28.60 28.77 29.19 29.44 29.15 28.32 27.63 27.05 26.47 26.00 25.94 26.22 26.71 26.79 26.16 25.63 26.04 26.22 26.27 26.27 26.15 26.11 25.96 26.22 27.41 26.72 26.23 25.92 25.80 25.97 26.12 26.25 26.30 25.89 25.86 25.86 25.64 25.75 25.72 25.85 26.39 26.76 27.17 27.49 27.71 27.73 27.63 27.47 27.43 26.88 26.20 25.58 25.16 24.97 24.74 24.60 24.54 24.57 24.54 24.50 24.50 24.43
28.42 28.34 28.10 27.77 27.93 28.27 28.57 28.72 29.39 29.92 29.87 28.97 28.07 27.37 26.79 26.26 25.94 25.73 25.72 26.12 26.19 25.93 25.87 25.96 26.04 26.05 26.05 26.02 25.98 25.74 25.87 26.68 26.29 26.07 25.91 25.83 26.08 26.33 26.45 26.28 25.50 25.33 25.44 25.23 25.52 25.87 26.31 27.19 27.77 28.04 28.25 28.41 28.00 27.82 27.78 27.76 27.18 26.42 25.71 25.21 24.90 24.68 24.57 24.51 24.52 24.47 24.43 24.32 24.28
28.08 27.82 27.67 27.64 28.64 29.82 30.40 29.91 30.41 30.37 29.90 28.85 27.96 27.17 26.59 26.09 25.73 25.36 25.14 25.10 26.41 26.48 26.01 25.67 25.69 25.71 25.66 25.52 25.40 25.33 25.44 25.83 25.83 25.90 25.77 25.52 25.65 25.76 25.70 25.46 25.06 24.88 25.10 25.73 25.79 26.53 27.70 28.87 29.41 29.40 29.31 29.31 28.53 28.23 28.01 27.62 27.28 26.64 25.85 25.30 24.97 24.77 24.64 24.64 24.56 24.38 24.20 24.15 24.17
27.62 27.60 27.68 28.04 28.89 29.60 30.15 30.48 30.69 30.33 29.54 28.54 27.45 26.67 26.00 25.73 25.29 25.15 25.19 25.29 25.65 25.68 25.46 25.29 25.35 25.37 25.29 25.22 25.13 25.16 25.23 25.39 25.50 25.62 25.77 25.73 25.75 25.51 25.23 25.39 25.34 25.15 25.44 26.67 28.63 30.30 31.51 32.09 31.72 31.40 31.08 30.77 30.15 29.62 28.96 28.07 27.16 26.44 25.83 25.54 25.28 25.08 24.88 24.70 24.51 24.30 24.13 24.06 24.15
27.39 28.04 28.59 28.63 29.09 29.44 29.81 30.44 30.00 29.26 28.28 27.17 26.31 25.82 25.49 25.33 25.28 25.20 25.31 25.53 25.46 25.25 25.05 25.01 24.86 25.13 25.50 25.70 25.60 25.27 25.08 25.02 25.05 25.19 25.38 25.73 25.72 25.44 25.30 25.66 25.66 25.82 26.71 28.97 32.95 35.10 35.89 35.67 34.77 33.75 32.77 31.95 31.22 30.63 29.73 28.34 27.47 26.73 26.27 26.03 25.96 25.62 25.16 24.76 24.46 24.15 24.06 24.07 24.25
27.63 28.33 28.85 28.81 29.16 29.70 29.89 29.53 28.77 27.89 26.95 26.02 25.51 25.29 25.23 25.10 25.41 25.25 25.09 25.38 25.18 24.82 24.63 24.71 24.70 26.28 27.63 26.74 25.95 25.36 25.03 24.92 24.84 24.71 24.79 25.38 25.28 24.95 24.97 25.84 26.63 26.94 28.09 31.49 34.45 35.97 36.66 37.16 37.05 36.04 34.42 32.50 31.67 30.98 30.32 29.36 28.08 27.16 26.52 26.07 26.00 25.68 25.29 25.19 24.78 24.51 24.52 24.70 24.87
28.26 28.86 29.19 29.26 29.51 29.64 29.43 28.54 27.64 26.83 26.10 25.46 25.32 25.16 24.92 24.50 24.44 24.57 24.77 24.95 24.64 24.39 24.30 24.68 24.98 27.29 28.78 26.44 25.53 25.13 25.03 24.88 24.70 24.43 24.19 24.24 24.53 24.51 24.67 25.74 26.40 27.46 29.40 32.96 34.98 36.15 36.66 37.16 37.43 37.08 35.86 33.54 32.11 31.16 30.53 29.93 28.43 27.47 26.72 26.12 25.77 25.38 25.08 24.91 24.88 25.11 25.42 25.58 26.67
29.20 29.60 29.86 30.23 29.96 29.35 28.47 27.53 26.85 26.34 25.79 25.31 25.03 24.82 24.49 24.10 24.20 24.40 24.43 24.32 24.15 24.24 24.52 24.88 25.90 26.49 26.41 25.45 25.21 25.08 24.84 24.52 24.42 24.28 24.02 23.77 23.84 23.87 24.36 25.75 26.20 27.99 30.73 34.17 35.30 36.03 36.46 36.92 37.19 37.23 36.68 35.21 32.89 31.38 30.32 29.49 28.78 27.86 26.90 26.40 25.84 25.29 24.82 24.78 25.45 26.36 27.05 27.27 28.38
29.62 30.28 30.64 30.59 29.39 28.30 27.43 26.79 26.36 25.90 25.32 24.72 24.47 24.35 24.31 24.09 24.08 24.06 24.05 24.04 24.23 24.57 24.93 25.04 26.16 25.89 25.27 25.15 24.91 24.65 24.38 24.26 24.24 24.10 23.88 23.55 23.52 24.03 24.72 25.50 25.86 27.99 31.27 34.63 35.40 35.92 36.26 36.60 36.87 36.94 36.90 36.54 34.20 32.41 30.97 29.74 29.01 28.08 27.29 27.10 26.33 25.68 25.41 25.57 27.47 28.96 29.75 29.54 29.13
30.52 30.92 30.65 29.41 28.22 27.18 26.47 26.01 25.58 25.09 24.60 24.16 23.94 23.84 23.84 23.88 23.94 23.87 23.86 24.05 24.18 24.96 25.48 25.34 25.24 25.09 24.93 24.75 24.52 24.37 24.24 24.20 23.96 23.65 23.30 23.07 23.72 24.63 25.61 26.50 25.89 27.52 30.74 34.53 35.30 35.80 36.07 36.36 36.43 36.58 36.66 36.65 34.94 32.89 30.96 29.69 28.46 27.81 27.59 27.65 26.17 25.50 26.02 28.13 28.86 29.30 29.45 29.46 29.01
31.12 30.81 29.76 28.40 27.23 26.41 25.82 25.24 24.79 24.29 23.88 23.65 23.45 23.45 23.63 23.61 23.60 23.49 23.45 23.66 24.17 25.50 26.49 25.67 24.87 24.54 24.40 24.22 24.11 24.06 23.93 23.66 23.40 23.26 23.28 23.25 25.26 25.60 25.23 24.91 24.49 26.92 30.65 34.51 35.22 35.64 35.90 36.01 36.07 36.18 36.29 36.48 35.06 32.97 30.89 29.55 28.32 27.67 27.38 27.28 26.44 26.78 27.78 29.01 29.24 29.31 29.22 28.92 27.96
29.80 29.64 28.75 27.44 26.63 25.95 25.33 24.57 24.18 23.76 23.43 23.20 23.12 23.18 23.26 23.05 22.67 22.46 22.53 23.25 24.30 24.84 24.93 24.62 24.35 24.27 24.17 23.82 23.90 23.73 23.46 23.31 23.43 23.85 24.29 24.59 24.23 23.71 23.76 25.09 24.48 27.05 30.91 34.48 35.02 35.44 35.62 35.62 35.72 35.82 36.00 36.27 35.12 32.73 30.31 28.93 28.15 27.70 27.47 27.45 28.20 28.61 28.80 29.11 29.21 29.08 28.79 28.42 28.06
27.56 27.51 27.20 26.63 26.20 25.45 24.66 23.99 23.68 23.31 23.02 22.86 22.68 22.73 22.65 22.22 21.78 21.70 22.20 23.50 24.32 24.30 24.13 24.44 24.35 24.31 24.18 23.93 23.99 23.67 23.48 23.96 24.31 24.96 25.38 25.04 23.73 23.28 23.69 25.19 24.97 27.93 31.83 34.32 34.78 35.08 35.23 35.30 35.36 35.61 35.83 36.14 34.54 31.99 29.58 28.19 28.23 28.41 28.89 29.58 30.08 30.02 29.57 29.13 28.93 28.61 28.14 27.71 27.84
26.81 26.44 26.29 26.28 25.92 25.00 24.08 23.54 23.11 22.82 22.67 22.65 22.47 22.29 22.09 21.76 22.13 22.76 23.71 25.22 25.02 24.54 24.25 24.37 24.21 24.03 23.89 23.83 23.51 23.30 23.89 25.85 25.09 24.16 23.32 22.96 22.77 23.03 23.78 24.66 25.58 28.76 32.40 34.10 34.50 34.69 34.80 34.94 35.12 35.33 35.66 35.80 33.56 31.05 28.89 27.58 28.45 29.37 30.12 30.46 30.10 29.87 29.55 29.23 28.87 28.59 28.29 27.52 27.37
26.57 26.13 25.72 25.39 24.83 24.14 23.52 23.15 22.54 22.41 22.47 22.64 22.51 22.30 22.03 21.87 22.58 23.33 24.44 26.25 26.21 25.11 23.85 23.40 23.08 22.97 22.83 22.70 22.70 23.22 23.96 24.75 23.98 23.39 23.14 23.20 23.12 23.40 23.69 23.71 24.78 28.28 32.15 33.73 34.02 34.26 34.40 34.62 34.87 35.12 35.22 34.67 32.22 30.22 28.85 28.14 29.00 29.65 29.91 29.91 29.36 29.14 29.11 29.01 29.23 29.24 28.98 28.20 27.41
26.19 25.77 25.25 24.59 23.75 23.21 22.76 22.47 22.07 22.07 22.31 22.52 22.51 22.46 22.26 22.06 22.27 22.78 24.07 26.45 25.93 24.58 23.21 22.59 22.17 22.15 22.28 22.52 22.66 23.79 24.61 23.64 23.26 23.24 23.56 24.17 23.71 23.12 22.69 22.77 23.46 27.02 31.15 33.21 33.55 33.83 34.09 34.31 34.59 34.88 34.54 33.08 30.89 29.75 29.50 29.82 29.82 29.59 29.32 29.31 28.89 28.76 28.76 28.60 28.96 29.12 28.92 28.29 27.40
25.79 25.42 24.82 23.94 23.05 22.36 21.85 21.47 21.73 22.07 22.31 22.21 21.97 21.97 22.17 22.37 22.19 22.32 23.15 25.38 23.79 22.92 22.53 22.33 22.27 22.40 22.67 22.98 23.11 23.46 23.70 23.22 23.06 23.24 23.84 24.87 24.05 23.14 22.62 22.89 22.76 25.52 29.31 32.36 33.11 33.51 33.73 34.06 34.43 34.49 33.75 31.58 29.86 29.21 29.17 29.35 29.46 29.40 29.10 28.60 28.75 28.89 28.95 28.95 28.72 28.47 28.09 27.52 27.66
25.07 24.60 24.09 23.21 22.44 21.75 21.23 20.94 21.65 22.13 22.17 21.87 21.38 21.33 21.57 21.82 21.81 22.06 23.09 25.63 23.59 22.76 22.61 22.54 22.77 22.95 22.96 22.91 23.26 23.32 23.25 22.85 23.49 23.63 23.51 23.51 23.00 22.94 23.06 23.17 22.86 24.62 27.67 31.37 32.58 33.18 33.45 33.86 34.22 34.20 33.32 30.93 29.30 28.62 28.58 28.51 28.58 28.75 28.72 28.38 28.41 28.50 28.60 28.84 28.50 28.07 27.52 27.13 29.22
24.27 23.72 23.23 22.62 22.03 21.61 21.37 21.37 21.87 22.07 21.97 21.72 21.29 21.04 21.02 20.97 21.35 22.40 23.81 25.42 23.38 22.58 22.61 22.68 22.86 22.91 23.17 24.05 24.34 23.98 23.39 22.94 23.19 23.47 23.34 22.34 22.66 24.30 25.52 24.51 23.20 24.07 26.63 30.59 32.00 32.87 33.27 33.66 33.94 34.07 33.51 31.54 29.57 28.68 28.45 28.37 28.17 28.06 28.04 27.90 27.80 27.78 28.02 28.54 28.33 27.88 27.43 27.06 30.25
23.20 22.68 22.27 21.99 21.85 21.73 21.71 21.93 21.99 21.82 21.56 21.43 21.49 21.23 21.20 21.68 22.74 24.02 24.67 23.90 22.29 21.79 21.98 22.33 22.54 22.90 23.76 25.78 24.92 23.73 22.81 22.74 22.26 22.32 22.71 22.84 23.68 26.30 27.80 25.38 23.10 23.11 25.21 29.15 31.33 32.45 33.10 33.49 33.77 34.03 33.47 31.68 30.18 29.26 28.74 28.36 28.08 27.76 27.50 27.34 27.32 27.27 27.47 27.95 27.93 27.68 27.42 27.20 29.35
22.08 22.20 22.50 22.11 21.43 21.47 21.94 22.33 22.16 21.51 20.98 20.93 21.12 21.63 22.50 23.92 23.79 23.50 22.77 21.39 21.14 21.35 21.76 22.24 22.41 22.56 23.32 25.18 24.25 22.99 22.09 22.20 22.20 22.00 22.13 23.26 23.62 25.46 26.28 23.88 22.20 21.77 22.97 26.26 30.10 32.10 33.03 33.40 33.69 33.87 33.47 32.05 30.47 29.63 29.02 28.29 27.84 27.33 27.07 26.95 27.08 27.20 27.37 27.40 27.43 27.48 27.64 27.84 28.56
MSLP
1015.09 1015.29 1015.45 1015.69 1015.89 1016.13 1016.33 1016.53 1016.65 1016.73 1016.85 1017.05 1017.21 1017.37 1017.53 1017.69 1017.85 1018.01 1018.05 1018.13 1018.21 1018.29 1018.37 1018.41 1018.41 1018.41 1018.45 1018.41 1018.41 1018.41 1018.41 1018.41 1018.41 1018.33 1018.29 1018.29 1018.25 1018.25 1018.21 1018.17 1018.17 1018.13 1018.09 1018.05 1018.01 1017.97 1017.89 1017.85 1017.81 1017.69 1017.57 1017.49 1017.45 1017.41 1017.37 1017.29 1017.25 1017.21 1017.17 1017.13 1017.05 1017.01 1016.97 1016.97 1016.89 1016.81 1016.73 1016.65 1016.53
1015.25 1015.41 1015.57 1015.73 1015.93 1016.13 1016.41 1016.61 1016.73 1016.85 1017.01 1017.13 1017.25 1017.41 1017.53 1017.69 1017.85 1018.01 1018.13 1018.21 1018.29 1018.29 1018.37 1018.41 1018.41 1018.45 1018.45 1018.45 1018.45 1018.45 1018.45 1018.41 1018.41 1018.37 1018.29 1018.29 1018.25 1018.21 1018.17 1018.13 1018.13 1018.13 1018.13 1018.05 1018.01 1018.01 1017.97 1017.89 1017.85 1017.77 1017.65 1017.53 1017.53 1017.45 1017.37 1017.29 1017.25 1017.21 1017.17 1017.13 1017.05 1017.01 1016.93 1016.89 1016.81 1016.73 1016.65 1016.57 1016.45
1015.37 1015.53 1015.69 1015.89 1016.09 1016.29 1016.45 1016.73 1016.89 1017.05 1017.13 1017.25 1017.33 1017.45 1017.61 1017.77 1017.89 1018.05 1018.17 1018.29 1018.33 1018.37 1018.37 1018.41 1018.41 1018.45 1018.49 1018.49 1018.45 1018.45 1018.45 1018.41 1018.41 1018.41 1018.37 1018.29 1018.29 1018.21 1018.17 1018.13 1018.13 1018.13 1018.09 1018.05 1018.05 1018.01 1017.97 1017.93 1017.85 1017.77 1017.65 1017.57 1017.57 1017.53 1017.41 1017.29 1017.25 1017.21 1017.21 1017.13 1017.01 1016.97 1016.85 1016.81 1016.69 1016.61 1016.57 1016.45 1016.41
1015.49 1015.65 1015.85 1016.01 1016.17 1016.33 1016.53 1016.73 1016.93 1017.09 1017.21 1017.29 1017.41 1017.57 1017.69 1017.85 1018.01 1018.13 1018.29 1018.33 1018.41 1018.41 1018.41 1018.45 1018.49 1018.49 1018.49 1018.49 1018.45 1018.45 1018.45 1018.41 1018.41 1018.41 1018.37 1018.29 1018.29 1018.21 1018.17 1018.13 1018.13 1018.13 1018.13 1018.09 1018.05 1018.05 1018.01 1017.97 1017.85 1017.77 1017.69 1017.65 1017.65 1017.57 1017.45 1017.29 1017.25 1017.21 1017.13 1017.05 1016.97 1016.89 1016.85 1016.73 1016.65 1016.57 1016.45 1016.37 1016.33
1015.69 1015.81 1015.93 1016.09 1016.25 1016.41 1016.57 1016.73 1016.97 1017.13 1017.25 1017.37 1017.53 1017.69 1017.89 1018.01 1018.13 1018.25 1018.33 1018.37 1018.41 1018.41 1018.45 1018.49 1018.53 1018.53 1018.49 1018.49 1018.49 1018.49 1018.45 1018.41 1018.37 1018.37 1018.37 1018.29 1018.29 1018.21 1018.17 1018.13 1018.17 1018.13 1018.13 1018.09 1018.05 1018.05 1018.01 1018.01 1017.89 1017.81 1017.69 1017.65 1017.57 1017.49 1017.41 1017.33 1017.29 1017.25 1017.13 1017.01 1016.93 1016.85 1016.77 1016.69 1016.57 1016.49 1016.41 1016.33 1016.25
1015.81 1015.93 1016.01 1016.13 1016.29 1016.45 1016.65 1016.81 1017.01 1017.17 1017.33 1017.45 1017.69 1017.93 1018.09 1018.13 1018.25 1018.29 1018.37 1018.41 1018.49 1018.53 1018.53 1018.49 1018.49 1018.49 1018.49 1018.53 1018.53 1018.53 1018.49 1018.45 1018.45 1018.41 1018.37 1018.33 1018.29 1018.21 1018.17 1018.17 1018.17 1018.17 1018.13 1018.13 1018.13 1018.05 1018.01 1018.01 1017.89 1017.81 1017.69 1017.61 1017.53 1017.41 1017.37 1017.33 1017.29 1017.25 1017.13 1017.01 1016.89 1016.81 1016.73 1016.69 1016.57 1016.45 1016.37 1016.29 1016.29
1015.85 1015.97 1016.13 1016.25 1016.37 1016.57 1016.77 1016.97 1017.13 1017.29 1017.45 1017.61 1017.85 1018.05 1018.21 1018.29 1018.33 1018.41 1018.45 1018.49 1018.53 1018.53 1018.53 1018.49 1018.49 1018.53 1018.57 1018.57 1018.57 1018.57 1018.57 1018.49 1018.45 1018.41 1018.37 1018.33 1018.29 1018.29 1018.25 1018.21 1018.21 1018.17 1018.17 1018.13 1018.13 1018.05 1018.01 1018.01 1017.93 1017.77 1017.65 1017.57 1017.45 1017.41 1017.33 1017.29 1017.25 1017.21 1017.13 1017.05 1016.85 1016.73 1016.69 1016.61 1016.49 1016.41 1016.37 1016.29 1016.29
1015.85 1016.01 1016.13 1016.29 1016.49 1016.69 1016.89 1017.05 1017.21 1017.37 1017.57 1017.81 1018.01 1018.13 1018.25 1018.29 1018.41 1018.41 1018.49 1018.49 1018.57 1018.57 1018.57 1018.53 1018.57 1018.57 1018.57 1018.57 1018.57 1018.57 1018.57 1018.49 1018.45 1018.41 1018.37 1018.33 1018.33 1018.29 1018.29 1018.29 1018.29 1018.21 1018.17 1018.13 1018.13 1018.09 1018.05 1017.97 1017.85 1017.77 1017.69 1017.57 1017.49 1017.33 1017.29 1017.25 1017.25 1017.21 1017.13 1017.01 1016.85 1016.73 1016.61 1016.57 1016.41 1016.37 1016.33 1016.29 1016.25
1016.05 1016.17 1016.29 1016.45 1016.61 1016.81 1017.01 1017.17 1017.29 1017.49 1017.69 1017.93 1018.09 1018.21 1018.29 1018.33 1018.41 1018.41 1018.49 1018.57 1018.57 1018.57 1018.57 1018.57 1018.57 1018.57 1018.57 1018.57 1018.57 1018.57 1018.57 1018.53 1018.49 1018.41 1018.37 1018.37 1018.37 1018.33 1018.33 1018.29 1018.29 1018.21 1018.17 1018.13 1018.09 1018.09 1018.01 1017.93 1017.85 1017.73 1017.65 1017.57 1017.45 1017.37 1017.29 1017.21 1017.21 1017.17 1017.09 1017.01 1016.85 1016.69 1016.57 1016.49 1016.41 1016.37 1016.29 1016.25 1016.17
1016.17 1016.33 1016.49 1016.69 1016.85 1016.97 1017.09 1017.29 1017.41 1017.57 1017.81 1018.01 1018.13 1018.25 1018.29 1018.29 1018.37 1018.41 1018.49 1018.57 1018.53 1018.57 1018.61 1018.61 1018.61 1018.61 1018.61 1018.61 1018.61 1018.61 1018.57 1018.53 1018.49 1018.41 1018.41 1018.37 1018.37 1018.37 1018.37 1018.33 1018.29 1018.25 1018.17 1018.09 1018.05 1018.05 1018.01 1017.89 1017.81 1017.69 1017.61 1017.53 1017.45 1017.37 1017.29 1017.21 1017.13 1017.13 1017.01 1016.85 1016.73 1016.65 1016.57 1016.41 1016.37 1016.29 1016.21 1016.13 1016.09
1016.29 1016.45 1016.61 1016.85 1017.01 1017.09 1017.21 1017.41 1017.61 1017.73 1017.89 1018.13 1018.21 1018.29 1018.29 1018.37 1018.41 1018.45 1018.53 1018.53 1018.57 1018.61 1018.69 1018.65 1018.65 1018.61 1018.61 1018.61 1018.61 1018.57 1018.53 1018.53 1018.49 1018.45 1018.41 1018.41 1018.41 1018.41 1018.41 1018.37 1018.33 1018.29 1018.17 1018.09 1018.05 1018.01 1017.93 1017.85 1017.77 1017.69 1017.57 1017.45 1017.41 1017.29 1017.25 1017.13 1017.09 1017.01 1016.93 1016.81 1016.73 1016.61 1016.53 1016.41 1016.29 1016.25 1016.13 1016.09 1016.01
1016.41 1016.57 1016.73 1016.93 1017.05 1017.13 1017.33 1017.57 1017.77 1017.93 1018.05 1018.17 1018.29 1018.33 1018.41 1018.41 1018.45 1018.49 1018.49 1018.57 1018.61 1018.65 1018.69 1018.69 1018.69 1018.69 1018.65 1018.61 1018.57 1018.57 1018.49 1018.49 1018.45 1018.45 1018.41 1018.41 1018.41 1018.41 1018.41 1018.33 1018.29 1018.21 1018.13 1018.09 1018.01 1017.97 1017.85 1017.81 1017.73 1017.65 1017.57 1017.41 1017.33 1017.25 1017.13 1017.09 1017.01 1016.97 1016.85 1016.73 1016.61 1016.57 1016.41 1016.29 1016.21 1016.13 1016.05 1015.97 1015.89
1016.49 1016.69 1016.85 1017.01 1017.13 1017.29 1017.45 1017.69 1017.85 1018.01 1018.13 1018.29 1018.33 1018.37 1018.41 1018.45 1018.45 1018.49 1018.53 1018.61 1018.65 1018.69 1018.69 1018.69 1018.69 1018.69 1018.69 1018.61 1018.57 1018.57 1018.53 1018.49 1018.49 1018.45 1018.45 1018.41 1018.41 1018.41 1018.37 1018.29 1018.29 1018.21 1018.13 1018.05 1017.97 1017.89 1017.85 1017.73 1017.69 1017.61 1017.53 1017.41 1017.29 1017.17 1017.13 1017.01 1016.93 1016.85 1016.77 1016.65 1016.53 1016.45 1016.37 1016.21 1016.09 1016.01 1015.97 1015.85 1015.81
1016.61 1016.81 1017.01 1017.13 1017.25 1017.41 1017.57 1017.77 1017.93 1018.05 1018.17 1018.29 1018.33 1018.37 1018.41 1018.45 1018.45 1018.49 1018.57 1018.69 1018.69 1018.73 1018.73 1018.73 1018.69 1018.61 1018.61 1018.61 1018.57 1018.57 1018.53 1018.49 1018.49 1018.49 1018.45 1018.41 1018.41 1018.41 1018.37 1018.33 1018.25 1018.17 1018.09 1018.01 1017.89 1017.81 1017.73 1017.69 1017.61 1017.57 1017.45 1017.37 1017.25 1017.13 1017.01 1016.93 1016.85 1016.77 1016.69 1016.57 1016.45 1016.33 1016.21 1016.13 1016.01 1015.93 1015.85 1015.77 1015.69
1016.77 1016.97 1017.09 1017.21 1017.33 1017.49 1017.69 1017.85 1017.97 1018.09 1018.21 1018.29 1018.37 1018.41 1018.41 1018.49 1018.53 1018.57 1018.61 1018.69 1018.73 1018.73 1018.77 1018.73 1018.69 1018.61 1018.57 1018.57 1018.57 1018.57 1018.53 1018.49 1018.49 1018.49 1018.45 1018.45 1018.41 1018.41 1018.37 1018.29 1018.21 1018.13 1018.05 1017.93 1017.85 1017.73 1017.69 1017.61 1017.53 1017.45 1017.37 1017.29 1017.13 1017.01 1016.93 1016.85 1016.73 1016.65 1016.57 1016.45 1016.37 1016.21 1016.09 1016.01 1015.89 1015.81 1015.73 1015.69 1015.61
1016.93 1017.09 1017.21 1017.33 1017.45 1017.61 1017.77 1017.93 1018.01 1018.13 1018.25 1018.33 1018.37 1018.41 1018.41 1018.53 1018.57 1018.57 1018.61 1018.69 1018.73 1018.77 1018.77 1018.73 1018.73 1018.69 1018.61 1018.57 1018.53 1018.53 1018.53 1018.49 1018.49 1018.49 1018.49 1018.49 1018.41 1018.41 1018.37 1018.29 1018.21 1018.13 1018.01 1017.89 1017.77 1017.69 1017.57 1017.53 1017.41 1017.33 1017.29 1017.17 1017.05 1016.93 1016.81 1016.73 1016.61 1016.49 1016.41 1016.29 1016.17 1016.09 1016.01 1015.89 1015.81 1015.69 1015.65 1015.61 1015.57
1017.09 1017.21 1017.29 1017.45 1017.57 1017.73 1017.85 1017.97 1018.05 1018.13 1018.29 1018.33 1018.41 1018.41 1018.45 1018.57 1018.61 1018.65 1018.65 1018.69 1018.77 1018.77 1018.77 1018.73 1018.73 1018.69 1018.61 1018.57 1018.53 1018.53 1018.53 1018.49 1018.49 1018.49 1018.49 1018.49 1018.45 1018.41 1018.37 1018.29 1018.17 1018.05 1017.93 1017.85 1017.73 1017.61 1017.49 1017.37 1017.29 1017.21 1017.13 1017.05 1016.97 1016.85 1016.69 1016.57 1016.45 1016.33 1016.25 1016.13 1016.01 1015.93 1015.85 1015.73 1015.69 1015.61 1015.57 1015.49 1015.41
1017.21 1017.33 1017.41 1017.57 1017.69 1017.81 1017.89 1018.01 1018.13 1018.21 1018.29 1018.37 1018.41 1018.45 1018.49 1018.57 1018.61 1018.69 1018.69 1018.73 1018.77 1018.81 1018.81 1018.77 1018.73 1018.69 1018.65 1018.61 1018.57 1018.57 1018.53 1018.49 1018.49 1018.49 1018.49 1018.49 1018.45 1018.41 1018.33 1018.25 1018.13 1018.01 1017.89 1017.77 1017.69 1017.57 1017.41 1017.29 1017.17 1017.09 1017.01 1016.89 1016.77 1016.65 1016.53 1016.41 1016.29 1016.17 1016.05 1015.97 1015.85 1015.77 1015.69 1015.61 1015.57 1015.53 1015.45 1015.41 1015.29
1017.33 1017.45 1017.57 1017.69 1017.73 1017.85 1017.97 1018.01 1018.13 1018.25 1018.29 1018.37 1018.41 1018.49 1018.57 1018.61 1018.65 1018.73 1018.73 1018.77 1018.77 1018.77 1018.81 1018.77 1018.73 1018.69 1018.65 1018.61 1018.57 1018.53 1018.45 1018.49 1018.49 1018.49 1018.45 1018.45 1018.41 1018.37 1018.29 1018.13 1018.01 1017.89 1017.85 1017.69 1017.57 1017.45 1017.33 1017.21 1017.09 1016.97 1016.85 1016.73 1016.61 1016.45 1016.33 1016.21 1016.13 1016.01 1015.89 1015.81 1015.73 1015.65 1015.57 1015.49 1015.41 1015.37 1015.29 1015.29 1015.13
1017.45 1017.57 1017.65 1017.77 1017.81 1017.89 1018.01 1018.05 1018.13 1018.21 1018.29 1018.33 1018.41 1018.53 1018.57 1018.65 1018.69 1018.73 1018.77 1018.77 1018.77 1018.77 1018.81 1018.77 1018.73 1018.69 1018.65 1018.61 1018.57 1018.53 1018.45 1018.45 1018.49 1018.49 1018.45 1018.41 1018.41 1018.33 1018.21 1018.09 1017.97 1017.85 1017.69 1017.65 1017.49 1017.37 1017.25 1017.13 1016.97 1016.85 1016.73 1016.57 1016.45 1016.29 1016.17 1016.05 1015.97 1015.85 1015.77 1015.69 1015.61 1015.53 1015.41 1015.37 1015.29 1015.25 1015.17 1015.09 1015.01
1017.57 1017.65 1017.69 1017.81 1017.85 1017.97 1018.01 1018.05 1018.13 1018.21 1018.29 1018.37 1018.45 1018.53 1018.61 1018.65 1018.73 1018.73 1018.77 1018.77 1018.81 1018.81 1018.81 1018.81 1018.77 1018.73 1018.69 1018.65 1018.61 1018.57 1018.49 1018.45 1018.49 1018.49 1018.45 1018.41 1018.33 1018.25 1018.13 1018.01 1017.89 1017.77 1017.61 1017.53 1017.41 1017.29 1017.13 1017.01 1016.85 1016.69 1016.53 1016.41 1016.29 1016.13 1016.01 1015.89 1015.81 1015.69 1015.61 1015.57 1015.45 1015.37 1015.29 1015.21 1015.13 1015.09 1015.01 1014.93 1014.85
1017.61 1017.69 1017.77 1017.85 1017.89 1017.93 1018.01 1018.05 1018.13 1018.21 1018.29 1018.41 1018.49 1018.57 1018.61 1018.69 1018.73 1018.77 1018.77 1018.81 1018.85 1018.85 1018.81 1018.81 1018.81 1018.73 1018.73 1018.65 1018.65 1018.61 1018.53 1018.49 1018.49 1018.45 1018.41 1018.41 1018.29 1018.13 1018.01 1017.93 1017.85 1017.69 1017.57 1017.45 1017.29 1017.13 1017.01 1016.81 1016.61 1016.45 1016.33 1016.17 1016.05 1015.97 1015.85 1015.73 1015.65 1015.57 1015.45 1015.41 1015.29 1015.25 1015.13 1015.05 1015.01 1014.93 1014.85 1014.77 1014.69
1017.69 1017.77 1017.85 1017.89 1017.93 1017.93 1018.01 1018.05 1018.13 1018.25 1018.37 1018.45 1018.53 1018.57 1018.65 1018.73 1018.77 1018.77 1018.81 1018.85 1018.85 1018.85 1018.81 1018.81 1018.77 1018.73 1018.69 1018.61 1018.65 1018.61 1018.57 1018.57 1018.49 1018.41 1018.37 1018.33 1018.21 1018.09 1017.97 1017.85 1017.73 1017.65 1017.53 1017.37 1017.21 1017.01 1016.85 1016.57 1016.37 1016.21 1016.09 1016.01 1015.85 1015.73 1015.65 1015.57 1015.49 1015.41 1015.29 1015.25 1015.13 1015.09 1015.01 1014.93 1014.85 1014.77 1014.69 1014.61 1014.57
1017.73 1017.85 1017.89 1017.93 1017.97 1018.01 1018.05 1018.13 1018.21 1018.29 1018.41 1018.53 1018.57 1018.69 1018.73 1018.77 1018.81 1018.85 1018.85 1018.85 1018.85 1018.85 1018.81 1018.77 1018.73 1018.69 1018.65 1018.61 1018.61 1018.65 1018.65 1018.65 1018.57 1018.41 1018.29 1018.25 1018.13 1018.01 1017.89 1017.81 1017.69 1017.57 1017.41 1017.29 1017.13 1016.85 1016.61 1016.37 1016.17 1016.01 1015.85 1015.77 1015.69 1015.57 1015.45 1015.41 1015.29 1015.25 1015.17 1015.09 1015.01 1014.89 1014.85 1014.73 1014.69 1014.61 1014.53 1014.45 1014.41
1017.81 1017.85 1017.93 1017.97 1018.01 1018.05 1018.13 1018.17 1018.29 1018.41 1018.49 1018.61 1018.65 1018.73 1018.81 1018.85 1018.85 1018.85 1018.85 1018.85 1018.85 1018.85 1018.81 1018.77 1018.73 1018.69 1018.61 1018.61 1018.61 1018.61 1018.65 1018.65 1018.61 1018.53 1018.37 1018.17 1018.09 1017.97 1017.85 1017.77 1017.61 1017.49 1017.37 1017.17 1016.89 1016.61 1016.37 1016.21 1016.05 1015.85 1015.69 1015.57 1015.49 1015.41 1015.29 1015.21 1015.13 1015.09 1015.01 1014.97 1014.85 1014.77 1014.69 1014.57 1014.57 1014.49 1014.41 1014.29 1014.21
1017.81 1017.89 1017.97 1018.01 1018.05 1018.09 1018.17 1018.29 1018.37 1018.45 1018.57 1018.69 1018.73 1018.77 1018.85 1018.89 1018.89 1018.89 1018.89 1018.85 1018.85 1018.85 1018.85 1018.77 1018.73 1018.65 1018.61 1018.57 1018.65 1018.65 1018.65 1018.61 1018.57 1018.49 1018.41 1018.21 1018.05 1017.93 1017.81 1017.69 1017.57 1017.41 1017.29 1017.05 1016.73 1016.49 1016.29 1016.09 1015.89 1015.73 1015.57 1015.49 1015.33 1015.25 1015.13 1015.05 1015.01 1014.93 1014.85 1014.81 1014.73 1014.65 1014.57 1014.49 1014.37 1014.29 1014.21 1014.13 1014.05
1017.85 1017.93 1017.97 1018.01 1018.09 1018.17 1018.29 1018.37 1018.45 1018.57 1018.65 1018.73 1018.81 1018.85 1018.89 1018.89 1018.89 1018.89 1018.89 1018.93 1018.93 1018.85 1018.81 1018.73 1018.73 1018.69 1018.61 1018.65 1018.73 1018.73 1018.69 1018.57 1018.53 1018.45 1018.33 1018.21 1018.09 1017.93 1017.81 1017.61 1017.53 1017.41 1017.21 1016.93 1016.61 1016.41 1016.17 1016.01 1015.77 1015.61 1015.45 1015.37 1015.25 1015.13 1015.01 1014.93 1014.85 1014.81 1014.73 1014.69 1014.57 1014.53 1014.45 1014.37 1014.25 1014.13 1014.05 1013.93 1013.85
1017.85 1017.93 1018.01 1018.05 1018.17 1018.29 1018.37 1018.41 1018.49 1018.61 1018.73 1018.77 1018.85 1018.93 1018.97 1018.97 1018.97 1018.97 1018.97 1018.97 1018.93 1018.85 1018.81 1018.77 1018.73 1018.69 1018.69 1018.73 1018.73 1018.73 1018.69 1018.57 1018.49 1018.37 1018.29 1018.13 1018.01 1017.89 1017.77 1017.57 1017.45 1017.29 1017.09 1016.77 1016.53 1016.29 1016.09 1015.85 1015.69 1015.53 1015.37 1015.25 1015.13 1015.01 1014.93 1014.81 1014.73 1014.65 1014.61 1014.53 1014.49 1014.41 1014.29 1014.21 1014.13 1014.01 1013.85 1013.73 1013.61
1017.85 1017.97 1018.01 1018.13 1018.29 1018.37 1018.41 1018.49 1018.57 1018.69 1018.77 1018.85 1018.93 1018.97 1019.01 1018.97 1018.97 1019.01 1019.01 1018.97 1018.93 1018.89 1018.89 1018.85 1018.77 1018.73 1018.73 1018.77 1018.77 1018.73 1018.65 1018.57 1018.45 1018.29 1018.17 1018.09 1017.97 1017.85 1017.69 1017.53 1017.41 1017.25 1017.01 1016.73 1016.45 1016.21 1016.01 1015.81 1015.61 1015.41 1015.29 1015.13 1015.01 1014.93 1014.81 1014.73 1014.65 1014.57 1014.45 1014.41 1014.33 1014.29 1014.17 1014.05 1013.93 1013.77 1013.65 1013.57 1013.53
1017.85 1018.01 1018.13 1018.25 1018.33 1018.45 1018.57 1018.61 1018.73 1018.77 1018.85 1018.89 1019.01 1019.01 1019.01 1019.01 1019.01 1019.01 1019.01 1019.01 1019.01 1018.97 1018.93 1018.85 1018.85 1018.85 1018.85 1018.85 1018.77 1018.73 1018.61 1018.45 1018.33 1018.25 1018.13 1018.01 1017.89 1017.77 1017.57 1017.41 1017.33 1017.13 1016.89 1016.61 1016.37 1016.13 1015.89 1015.73 1015.57 1015.41 1015.21 1015.01 1014.89 1014.81 1014.73 1014.65 1014.57 1014.49 1014.41 1014.29 1014.21 1014.13 1014.01 1013.85 1013.77 1013.69 1013.57 1013.53 1013.45
1017.93 1018.05 1018.17 1018.29 1018.45 1018.57 1018.65 1018.69 1018.77 1018.85 1018.93 1019.01 1019.05 1019.05 1019.05 1019.05 1019.09 1019.09 1019.09 1019.05 1019.01 1018.93 1018.85 1018.85 1018.93 1018.93 1018.89 1018.81 1018.77 1018.69 1018.57 1018.41 1018.29 1018.17 1018.09 1017.97 1017.81 1017.65 1017.53 1017.41 1017.29 1017.05 1016.81 1016.53 1016.29 1016.05 1015.85 1015.69 1015.49 1015.29 1015.13 1014.93 1014.81 1014.73 1014.65 1014.57 1014.49 1014.41 1014.29 1014.17 1014.09 1013.97 1013.85 1013.77 1013.69 1013.61 1013.57 1013.49 1013.37
1018.01 1018.13 1018.29 1018.41 1018.57 1018.65 1018.73 1018.77 1018.85 1018.93 1019.01 1019.05 1019.09 1019.09 1019.13 1019.13 1019.13 1019.13 1019.13 1019.05 1019.01 1018.97 1018.97 1019.01 1019.01 1018.97 1018.85 1018.77 1018.73 1018.61 1018.53 1018.37 1018.25 1018.13 1017.97 1017.85 1017.77 1017.65 1017.49 1017.33 1017.21 1017.01 1016.73 1016.45 1016.21 1016.01 1015.81 1015.61 1015.41 1015.25 1015.05 1014.85 1014.73 1014.65 1014.61 1014.53 1014.41 1014.29 1014.21 1014.09 1013.97 1013.85 1013.77 1013.69 1013.61 1013.57 1013.49 1013.41 1013.29
1018.17 1018.29 1018.37 1018.53 1018.61 1018.73 1018.77 1018.85 1018.97 1019.01 1019.09 1019.13 1019.13 1019.13 1019.17 1019.13 1019.13 1019.13 1019.09 1019.05 1019.01 1019.01 1019.05 1019.01 1019.01 1018.97 1018.89 1018.77 1018.65 1018.53 1018.41 1018.29 1018.13 1018.01 1017.85 1017.81 1017.69 1017.57 1017.41 1017.29 1017.13 1016.89 1016.65 1016.41 1016.17 1015.97 1015.77 1015.57 1015.37 1015.17 1015.01 1014.77 1014.69 1014.65 1014.57 1014.49 1014.33 1014.21 1014.05 1013.93 1013.85 1013.73 1013.65 1013.61 1013.57 1013.45 1013.41 1013.29 1013.17
1018.25 1018.37 1018.49 1018.61 1018.73 1018.81 1018.89 1018.97 1019.01 1019.09 1019.13 1019.13 1019.13 1019.17 1019.17 1019.17 1019.17 1019.13 1019.05 1019.01 1019.01 1019.05 1019.05 1019.01 1019.01 1018.93 1018.85 1018.73 1018.61 1018.49 1018.33 1018.17 1018.05 1017.93 1017.85 1017.73 1017.65 1017.57 1017.41 1017.25 1017.05 1016.85 1016.57 1016.33 1016.13 1015.89 1015.69 1015.53 1015.29 1015.13 1014.93 1014.73 1014.65 1014.61 1014.57 1014.41 1014.25 1014.09 1013.93 1013.85 1013.73 1013.65 1013.57 1013.57 1013.49 1013.41 1013.29 1013.17 1013.05
1018.29 1018.45 1018.57 1018.73 1018.81 1018.89 1019.01 1019.09 1019.13 1019.17 1019.21 1019.21 1019.21 1019.21 1019.17 1019.17 1019.17 1019.13 1019.05 1019.01 1019.01 1019.01 1019.01 1019.01 1018.97 1018.85 1018.77 1018.69 1018.57 1018.41 1018.29 1018.13 1018.01 1017.93 1017.81 1017.69 1017.57 1017.45 1017.33 1017.17 1017.01 1016.81 1016.57 1016.33 1016.09 1015.85 1015.65 1015.45 1015.29 1015.05 1014.85 1014.73 1014.73 1014.65 1014.53 1014.37 1014.17 1014.01 1013.85 1013.77 1013.69 1013.61 1013.57 1013.49 1013.41 1013.29 1013.17 1013.05 1012.89
1018.33 1018.49 1018.65 1018.81 1018.93 1019.01 1019.09 1019.17 1019.21 1019.25 1019.25 1019.25 1019.29 1019.25 1019.21 1019.21 1019.17 1019.13 1019.05 1019.01 1019.05 1019.09 1019.05 1019.01 1018.93 1018.85 1018.73 1018.57 1018.45 1018.29 1018.17 1018.13 1018.01 1017.85 1017.73 1017.61 1017.53 1017.41 1017.29 1017.13 1016.97 1016.73 1016.49 1016.29 1016.05 1015.85 1015.61 1015.41 1015.25 1015.01 1014.85 1014.77 1014.73 1014.65 1014.49 1014.29 1014.13 1013.97 1013.85 1013.69 1013.61 1013.57 1013.49 1013.41 1013.29 1013.17 1013.05 1012.93 1012.73
1018.41 1018.53 1018.69 1018.85 1019.01 1019.13 1019.21 1019.25 1019.25 1019.25 1019.29 1019.29 1019.29 1019.29 1019.25 1019.25 1019.21 1019.13 1019.09 1019.05 1019.13 1019.13 1019.05 1018.97 1018.85 1018.77 1018.69 1018.53 1018.37 1018.25 1018.13 1018.05 1017.97 1017.85 1017.69 1017.57 1017.45 1017.37 1017.29 1017.09 1016.93 1016.73 1016.49 1016.25 1016.01 1015.81 1015.61 1015.41 1015.21 1015.01 1014.85 1014.77 1014.69 1014.57 1014.41 1014.29 1014.09 1013.93 1013.77 1013.69 1013.57 1013.49 1013.41 1013.29 1013.13 1013.01 1012.85 1012.73 1012.53
1018.45 1018.57 1018.73 1018.97 1019.09 1019.17 1019.25 1019.29 1019.29 1019.29 1019.29 1019.29 1019.29 1019.29 1019.25 1019.21 1019.21 1019.17 1019.13 1019.05 1019.13 1019.13 1019.05 1018.93 1018.85 1018.73 1018.57 1018.41 1018.29 1018.17 1018.05 1017.97 1017.85 1017.77 1017.69 1017.53 1017.41 1017.33 1017.21 1017.01 1016.85 1016.65 1016.45 1016.17 1015.97 1015.77 1015.57 1015.37 1015.17 1015.01 1014.85 1014.77 1014.65 1014.53 1014.41 1014.29 1014.09 1013.93 1013.77 1013.61 1013.49 1013.41 1013.29 1013.17 1013.01 1012.81 1012.61 1012.45 1012.25
1018.53 1018.65 1018.81 1019.01 1019.13 1019.21 1019.29 1019.29 1019.29 1019.29 1019.25 1019.29 1019.29 1019.25 1019.21 1019.21 1019.21 1019.13 1019.09 1019.01 1019.05 1019.09 1019.05 1018.93 1018.77 1018.61 1018.45 1018.33 1018.25 1018.13 1018.01 1017.85 1017.77 1017.69 1017.61 1017.53 1017.41 1017.25 1017.09 1016.93 1016.73 1016.57 1016.37 1016.13 1015.93 1015.73 1015.57 1015.33 1015.13 1014.97 1014.85 1014.73 1014.61 1014.49 1014.37 1014.17 1014.01 1013.89 1013.73 1013.57 1013.41 1013.29 1013.13 1013.01 1012.81 1012.57 1012.37 1012.17 1012.01
1018.61 1018.73 1018.85 1019.01 1019.13 1019.17 1019.25 1019.25 1019.25 1019.25 1019.25 1019.25 1019.25 1019.25 1019.21 1019.17 1019.13 1019.09 1019.01 1019.05 1019.05 1019.01 1018.97 1018.85 1018.73 1018.57 1018.41 1018.29 1018.17 1018.13 1017.97 1017.81 1017.69 1017.61 1017.53 1017.45 1017.33 1017.13 1016.93 1016.85 1016.69 1016.53 1016.33 1016.13 1015.89 1015.69 1015.49 1015.29 1015.13 1014.93 1014.77 1014.65 1014.57 1014.41 1014.29 1014.13 1013.97 1013.81 1013.65 1013.49 1013.33 1013.13 1012.89 1012.73 1012.57 1012.41 1012.21 1012.05 1011.93
1018.73 1018.81 1018.89 1019.01 1019.09 1019.13 1019.17 1019.21 1019.21 1019.17 1019.17 1019.21 1019.21 1019.21 1019.13 1019.13 1019.13 1019.09 1019.05 1019.05 1019.01 1018.93 1018.85 1018.73 1018.57 1018.45 1018.33 1018.25 1018.17 1018.09 1017.97 1017.81 1017.65 1017.57 1017.41 1017.33 1017.21 1017.01 1016.85 1016.73 1016.57 1016.41 1016.29 1016.09 1015.85 1015.65 1015.41 1015.25 1015.05 1014.85 1014.73 1014.57 1014.45 1014.37 1014.29 1014.13 1013.89 1013.69 1013.49 1013.33 1013.17 1012.97 1012.69 1012.41 1012.29 1012.17 1012.09 1011.97 1011.85
Wind_Speed
8 7 7 7 6 5 5 4 4 4 4 4 4 4 4 4 4 3 2 2 2 2 2 1 1 1 0 0 1 1 1 1 2 2 2 2 2 2 3 3 3 3 3 4 4 4 3 3 3 2 2 2 2 2 2 2 2 2 2 2 2 2 2 3 3 4 4 4 3
8 8 8 8 7 6 5 5 4 4 4 3 4 4 4 4 4 3 3 2 2 2 2 1 1 0 0 1 1 1 1 1 2 2 2 3 3 3 3 3 3 3 3 4 4 4 4 3 3 3 3 2 2 2 3 2 2 2 3 3 3 2 2 3 3 4 4 4 3
8 8 7 7 7 6 6 5 5 5 4 4 4 4 4 4 3 3 3 2 1 1 1 1 1 1 1 1 1 0 1 1 1 2 2 3 3 3 3 3 4 4 4 4 4 4 4 3 3 3 3 3 3 3 3 3 2 2 3 3 3 3 3 4 4 4 4 4 4
8 8 7 7 8 8 7 5 5 6 5 5 4 4 4 3 3 2 2 1 1 1 1 1 1 0 1 1 1 1 1 1 1 2 2 3 3 3 4 4 4 5 5 4 4 4 4 3 3 3 3 3 3 3 3 3 3 3 3 3 3 3 3 4 4 4 4 4 4
7 7 7 8 8 8 7 6 7 6 5 5 5 4 3 3 2 2 2 2 2 1 1 0 0 0 0 1 1 1 2 2 2 2 2 3 4 4 4 4 4 5 5 5 5 4 4 3 3 2 2 2 3 3 3 3 3 3 3 3 3 3 3 4 4 4 4 4 4
7 7 7 7 8 8 7 6 7 7 6 5 5 4 4 3 3 3 3 2 1 1 0 0 0 1 1 1 2 2 2 2 2 2 2 3 4 4 5 5 5 5 5 5 5 4 4 3 3 3 3 3 3 3 3 3 3 3 4 4 4 4 4 4 4 4 4 4 4
8 8 8 8 8 8 7 6 6 6 5 5 6 5 4 3 3 3 3 2 1 1 1 1 1 1 1 2 2 2 2 2 2 3 3 3 4 5 5 5 5 5 5 5 5 4 3 3 3 3 4 4 4 4 4 3 4 4 5 5 4 4 4 4 4 4 4 5 5
8 8 8 8 9 8 8 7 6 5 5 5 5 5 5 4 4 3 2 2 1 1 1 1 1 1 1 1 1 2 2 3 3 3 3 4 4 5 5 5 5 5 5 5 4 4 4 3 3 3 4 4 4 4 5 5 5 5 5 6 5 4 4 4 4 4 4 5 5
8 8 8 8 8 8 8 7 7 7 6 6 5 5 4 4 4 3 3 2 1 1 0 1 0 1 1 1 1 2 2 2 3 4 4 4 5 5 5 5 6 6 6 5 4 4 4 3 3 4 4 4 4 5 5 5 5 5 6 5 5 5 5 4 4 4 4 4 5
8 8 8 8 8 8 8 8 8 7 7 6 4 4 4 4 4 3 2 1 1 1 1 1 1 1 1 1 1 2 2 2 3 3 4 4 5 5 5 5 5 6 6 5 4 4 4 4 4 5 5 4 5 5 6 6 6 6 6 5 5 6 6 5 5 4 4 4 5
9 8 8 7 8 8 9 8 7 7 6 5 4 4 3 3 3 2 1 1 1 1 1 1 1 1 1 1 1 2 2 2 2 3 4 4 5 5 5 5 5 6 6 6 5 4 4 4 5 6 6 5 5 6 6 6 6 6 6 6 6 6 7 6 5 5 4 4 5
9 8 8 7 8 8 9 8 6 6 5 5 4 3 3 2 2 1 1 2 2 1 1 1 0 0 1 1 1 2 2 2 3 3 4 4 5 5 5 5 6 6 6 6 5 4 4 4 5 6 7 7 6 5 6 7 7 7 7 7 6 6 7 7 7 5 4 4 4
9 8 7 7 8 8 8 7 6 5 5 5 4 3 2 2 1 1 2 2 1 1 1 1 1 1 1 1 2 2 2 2 3 3 4 4 5 5 5 6 6 6 6 6 5 4 4 5 6 7 7 7 6 6 6 7 7 7 8 8 8 7 7 8 7 6 5 4 4
9 8 8 8 8 8 7 6 5 5 4 4 3 2 2 1 1 1 2 2 1 0 1 1 1 1 1 1 1 2 2 2 3 3 4 5 5 5 6 6 6 6 6 6 5 5 5 6 6 7 7 8 7 7 7 7 7 7 8 8 9 9 8 8 7 6 5 5 5
9 8 8 7 7 7 6 6 5 4 4 4 2 2 1 1 1 1 1 1 0 1 1 1 1 1 1 1 1 2 2 2 3 3 4 5 6 6 6 6 7 7 6 6 6 5 6 6 6 7 7 7 8 8 8 7 7 7 8 8 8 8 8 8 7 6 5 5 5
8 7 7 6 6 6 6 5 4 4 3 3 2 1 1 1 1 1 1 1 0 1 1 1 2 2 2 2 2 2 2 3 3 4 5 5 6 6 7 7 7 7 7 7 7 6 6 6 6 6 7 7 8 8 8 8 8 8 8 8 8 8 8 7 6 6 5 4 5
7 7 6 6 7 6 5 5 4 3 3 3 2 1 1 1 1 1 1 0 0 1 1 2 1 2 2 2 2 2 2 3 3 4 5 5 6 6 7 7 7 7 7 7 7 7 7 7 7 6 7 7 8 8 8 8 8 8 8 8 8 7 7 7 6 5 4 4 5
6 6 6 6 6 6 6 5 4 3 3 3 2 1 1 1 1 1 0 0 0 1 1 2 2 2 2 3 3 3 3 3 4 4 5 5 6 6 7 7 7 7 7 7 7 7 8 8 8 7 7 7 7 8 8 8 8 8 8 8 7 7 6 6 5 4 4 4 5
6 6 6 6 6 6 5 5 4 3 3 2 2 1 1 1 1 1 0 1 0 1 1 2 2 2 2 3 3 3 3 3 4 5 5 6 6 6 6 7 7 7 7 6 7 7 7 8 8 8 8 8 8 8 8 8 8 7 7 7 7 6 6 5 5 4 4 4 5
6 6 5 5 5 5 5 4 4 3 3 2 2 2 1 1 1 1 1 1 1 1 1 1 2 3 3 3 4 4 4 3 4 5 5 6 6 6 7 7 7 7 7 7 7 7 7 8 8 8 8 8 8 8 8 7 7 7 7 6 6 5 5 5 5 4 4 4 5
5 5 4 4 4 4 4 3 3 3 3 2 2 2 1 1 1 0 0 1 1 1 1 1 2 3 3 4 4 4 4 3 4 4 5 6 6 7 7 6 6 7 7 6 7 7 8 8 8 8 8 8 8 8 8 7 7 7 6 5 5 5 5 5 5 5 5 5 5
4 4 3 3 3 3 3 3 3 3 3 3 2 1 1 1 0 0 1 1 1 1 1 1 2 2 3 3 4 4 4 4 4 4 5 5 6 6 6 6 6 6 7 7 7 8 8 8 8 8 8 8 7 7 7 7 7 6 6 6 5 5 5 5 5 5 5 5 5
4 3 3 2 3 3 4 4 4 4 3 3 2 1 1 1 1 1 1 1 1 1 1 1 2 2 2 3 3 4 4 4 5 5 6 5 6 6 6 5 6 6 7 7 7 7 8 8 8 8 8 7 7 7 7 7 7 6 6 6 6 6 5 5 5 5 5 5 5
3 3 2 2 3 4 4 4 4 4 3 2 2 1 1 1 1 1 1 1 1 1 2 2 2 2 2 3 3 3 4 4 6 6 7 7 6 6 6 6 6 6 6 6 8 9 10 9 8 8 8 8 7 7 7 7 7 6 6 6 6 6 6 5 5 5 5 5 5
3 3 3 3 3 4 4 4 4 3 3 2 1 1 1 1 1 1 1 1 2 2 2 2 3 3 3 3 3 3 3 4 5 6 7 7 7 7 6 6 5 5 5 7 12 16 17 16 13 10 9 8 8 7 7 6 7 7 6 6 7 7 6 6 5 5 5 6 6
3 3 3 3 4 4 4 4 3 3 2 1 1 1 1 1 1 1 1 2 2 2 2 3 3 3 3 3 4 4 4 4 5 6 6 7 8 7 6 6 6 5 6 10 16 19 20 20 19 16 12 9 8 8 8 7 7 7 6 6 6 6 7 7 6 6 6 6 6
3 3 4 4 4 4 4 3 3 3 2 1 1 1 1 1 1 1 1 2 2 2 2 3 3 3 4 3 4 4 5 5 5 5 6 6 7 7 7 6 6 6 8 13 18 20 20 20 21 20 17 11 9 8 8 7 7 7 6 6 6 6 7 7 7 7 7 6 6
4 4 4 5 5 4 3 3 3 2 2 1 1 0 1 1 1 1 2 2 2 3 3 3 3 3 3 3 3 4 5 5 5 5 6 6 6 7 7 6 6 7 11 16 19 20 20 21 21 21 20 16 10 8 7 7 7 6 6 6 6 6 7 7 7 7 7 7 7
4 5 5 5 5 4 3 3 3 2 1 1 0 0 1 1 1 2 2 3 3 3 3 3 3 3 3 3 4 5 5 5 5 5 5 5 6 6 7 7 7 9 13 18 20 20 20 21 21 21 21 20 12 8 7 6 6 6 6 6 6 6 6 6 6 7 8 8 8
5 5 5 5 4 3 3 2 2 2 1 0 0 0 1 2 2 2 3 3 3 3 2 2 2 3 4 4 4 4 5 5 5 5 5 6 6 7 8 8 7 9 13 18 20 20 21 21 21 21 21 21 15 10 7 6 6 6 6 6 6 6 7 7 7 7 7 7 8
5 5 5 5 4 3 2 2 2 1 1 0 0 1 2 2 2 2 2 2 2 2 2 2 3 4 4 4 4 4 5 5 5 5 5 6 7 8 8 8 8 9 12 18 20 21 21 21 21 21 22 22 17 11 7 7 7 6 6 7 7 7 6 6 6 6 7 8 8
5 5 5 5 4 3 2 2 2 1 1 0 1 1 2 2 1 1 1 1 2 2 3 3 3 4 5 5 4 4 5 5 5 6 6 6 7 7 7 8 8 9 13 18 20 21 21 21 21 22 22 22 17 12 8 7 7 7 7 7 7 6 6 5 5 6 7 8 9
5 5 5 5 4 3 2 2 1 1 1 1 1 2 2 2 2 2 2 2 2 2 2 3 3 4 4 5 5 5 5 6 6 7 7 7 7 6 7 7 7 9 14 18 20 20 21 21 21 22 22 22 16 11 8 8 7 6 6 6 6 6 5 6 6 7 7 8 9
5 5 5 4 3 3 2 1 1 1 1 1 2 2 2 2 2 2 2 2 1 1 2 2 3 3 4 4 4 5 5 6 6 6 7 7 7 7 7 7 6 10 15 19 20 20 21 21 21 22 22 21 14 10 8 8 7 6 7 7 6 6 6 7 7 8 9 9 10
5 5 4 4 3 2 2 1 1 1 1 2 2 2 2 2 2 2 2 2 2 2 2 3 3 3 3 3 3 4 5 6 6 7 7 7 7 7 7 7 7 10 15 18 19 20 20 21 21 22 21 18 11 9 8 8 8 8 8 7 7 7 8 8 8 9 10 10 10
5 5 5 4 3 2 1 1 1 1 2 2 2 2 2 2 2 2 2 2 2 2 3 3 3 3 3 4 4 4 5 5 6 7 7 7 7 7 7 7 7 10 14 17 19 19 20 20 21 21 19 14 9 8 8 9 9 9 9 9 8 8 9 9 9 10 10 10 10
5 5 5 4 3 2 1 1 1 1 2 2 1 1 2 2 2 2 2 1 2 2 3 3 3 4 4 4 4 5 5 5 6 6 7 7 7 7 7 7 7 9 12 16 18 19 19 20 20 20 18 12 9 8 8 8 8 8 9 9 9 9 9 9 9 9 9 10 11
4 5 5 4 3 2 1 1 1 1 1 1 1 1 1 1 2 2 2 1 2 2 3 3 4 4 5 5 5 6 6 6 6 6 7 7 7 7 7 7 7 8 11 14 17 18 19 19 20 20 17 11 9 8 7 7 8 8 9 9 9 9 9 8 8 8 9 10 13
4 4 4 4 3 2 1 1 1 0 0 1 1 1 1 1 2 2 2 2 2 2 3 4 5 5 6 6 6 6 6 7 6 6 6 6 7 8 8 8 7 8 10 14 16 18 18 19 20 20 18 13 9 7 7 7 8 8 9 8 9 9 9 9 8 8 9 11 15
3 3 4 3 3 2 2 1 1 1 1 1 1 2 2 2 2 2 2 2 2 2 3 4 5 6 6 6 6 6 7 7 7 6 6 6 7 9 10 8 8 8 10 13 15 17 18 19 19 20 18 12 9 7 7 7 8 9 9 8 8 9 9 9 8 8 8 10 12
3 3 3 3 3 2 2 1 1 1 1 1 1 2 2 2 2 2 2 2 2 3 3 4 5 6 7 6 6 6 6 7 7 7 6 7 7 9 9 8 8 8 9 10 13 16 17 18 19 20 18 14 10 8 7 7 8 9 10 9 9 9 9 9 8 8 8 8 8
Wind_Direction
106 109 110 111 110 109 107 105 105 105 108 109 110 111 110 110 111 110 108 104 109 116 124 134 142 146 143 358 20 18 11 3 1 2 4 8 359 351 345 342 341 337 332 327 324 322 319 318 316 312 308 303 303 298 294 293 306 313 313 312 304 298 295 298 295 293 292 289 285
107 108 110 110 109 108 105 102 99 97 95 97 103 106 107 106 109 108 105 101 110 118 123 122 112 98 56 17 20 25 21 8 359 358 357 356 350 347 346 344 340 337 334 331 327 324 323 323 322 318 314 313 318 313 305 296 305 317 317 310 302 298 299 299 295 291 289 290 288
110 109 108 109 110 110 108 105 100 95 92 89 91 93 96 99 102 104 104 103 102 103 103 98 77 56 39 359 349 359 12 7 358 355 352 346 344 345 345 344 341 338 336 334 329 325 322 321 317 314 314 317 320 316 308 301 310 315 312 305 301 303 305 305 302 299 297 298 296
110 111 111 112 112 113 113 112 106 100 95 93 88 86 87 89 92 98 99 99 77 72 73 88 78 59 32 16 359 356 353 357 2 358 351 344 343 342 343 344 343 339 335 333 330 326 322 320 314 313 314 315 313 309 306 306 315 313 306 300 304 306 308 307 305 304 304 303 299
109 112 114 115 113 112 111 109 105 101 98 94 90 87 84 84 88 91 91 83 75 68 66 81 105 75 31 27 17 5 356 351 358 359 354 345 342 341 343 346 342 337 334 332 330 326 322 319 315 311 307 304 301 299 299 302 310 310 306 305 308 308 308 307 307 306 305 303 301
113 111 110 109 107 105 102 100 101 101 99 95 94 92 89 88 89 89 89 90 91 83 64 59 68 52 38 28 19 7 356 346 350 356 355 348 344 344 345 344 339 336 333 332 329 325 322 321 317 313 310 308 306 301 300 302 309 311 312 312 310 309 309 306 305 305 305 303 303
116 113 109 105 103 101 99 98 98 98 97 95 97 99 100 98 95 95 97 100 88 61 32 38 44 40 35 28 16 3 352 344 346 352 355 352 346 344 343 340 337 335 332 329 328 325 322 317 317 315 315 315 314 310 309 311 315 314 313 311 309 309 307 302 302 303 304 301 298
109 108 106 103 102 101 101 101 99 97 95 95 101 105 108 106 103 100 95 83 70 57 44 49 46 44 41 36 16 359 349 346 347 350 352 353 348 344 341 338 336 333 329 326 326 323 317 311 313 313 314 317 317 315 314 315 317 315 311 307 306 305 304 301 301 301 299 296 293
103 101 99 98 99 100 101 100 99 99 98 98 102 107 110 108 106 100 94 86 88 87 65 38 35 42 39 32 10 353 346 349 349 348 348 350 347 343 338 336 334 329 325 323 322 318 314 310 311 310 310 312 313 312 311 312 313 311 307 304 304 303 303 300 299 296 292 289 288
107 104 101 99 99 100 98 96 96 97 99 100 102 104 105 103 101 102 105 119 115 74 35 8 10 23 24 14 354 343 340 345 349 348 346 345 343 339 334 331 328 324 321 319 318 315 313 311 311 310 309 308 308 307 306 308 308 307 305 304 304 304 303 300 297 293 289 284 283
110 108 107 106 105 102 99 96 95 96 99 102 103 101 99 98 101 108 120 122 81 51 23 332 354 15 12 352 338 334 336 343 350 349 345 340 336 332 328 323 321 318 315 314 314 314 314 313 311 310 309 309 307 307 306 306 306 305 303 301 302 303 302 299 296 291 287 284 284
110 108 108 109 107 104 101 100 101 101 103 106 106 105 102 104 112 119 108 81 65 45 347 298 313 340 345 330 328 332 340 348 351 348 342 334 330 326 323 320 317 315 313 310 310 311 313 312 311 310 310 309 308 307 307 307 307 305 303 301 302 301 300 298 295 292 287 286 290
110 109 108 107 105 103 103 104 106 108 108 109 111 111 111 112 118 108 93 80 68 24 298 289 281 294 313 322 326 335 343 348 349 345 339 330 327 325 323 320 316 314 312 310 309 311 312 310 308 308 308 308 307 305 305 305 305 304 303 302 302 300 298 297 295 292 292 293 295
109 110 110 109 106 105 105 107 109 111 111 112 116 118 115 112 95 88 89 89 83 305 288 290 292 297 310 319 330 338 343 346 347 343 336 329 326 324 322 318 315 313 311 310 310 310 311 308 306 305 305 305 303 303 302 301 300 299 299 299 299 298 296 295 294 294 295 297 298
109 110 111 109 107 107 108 111 113 113 113 115 119 119 112 97 75 72 79 88 106 273 286 303 311 314 317 327 338 342 344 347 347 342 335 328 325 322 319 316 313 312 311 311 310 310 309 306 304 302 302 301 301 300 300 299 296 295 294 293 293 293 293 293 293 293 294 296 299
111 112 111 110 110 110 111 114 115 115 114 117 118 111 98 88 67 66 69 70 297 294 302 320 321 321 324 336 350 353 350 349 345 340 333 327 322 319 316 314 312 311 310 311 311 311 309 305 303 300 299 298 297 297 297 296 294 292 290 288 288 288 288 288 289 289 289 291 297
112 114 114 113 114 115 117 119 118 117 118 122 116 107 96 94 73 69 65 56 330 327 329 325 320 328 335 340 350 355 354 347 340 334 327 320 316 313 311 309 308 308 308 310 311 311 309 306 303 300 297 295 294 294 293 292 291 290 288 286 285 284 283 282 282 282 283 287 293
115 116 116 116 118 120 122 124 122 123 124 125 122 112 98 91 80 72 52 20 349 338 333 324 322 332 343 343 344 347 349 344 333 325 318 313 309 307 305 304 305 306 308 309 309 308 307 306 304 301 299 295 293 291 290 289 288 287 286 285 283 280 277 275 273 272 275 281 288
119 119 120 121 123 125 127 128 129 130 131 131 124 113 98 84 78 53 14 342 326 315 321 328 330 337 344 345 341 340 341 338 328 319 313 308 306 304 303 303 305 307 308 309 307 306 305 304 302 300 298 295 293 290 289 287 286 285 283 281 279 276 271 268 264 263 266 272 281
123 124 126 128 129 130 131 132 132 133 131 128 118 110 96 83 70 47 15 334 308 294 305 340 343 342 343 343 341 338 335 332 325 317 311 308 306 305 303 304 307 308 309 309 307 306 304 302 300 297 295 292 291 290 288 287 286 284 281 278 274 270 265 262 260 261 263 267 274
128 131 134 136 135 136 135 134 132 128 124 117 111 105 99 80 62 40 344 300 291 294 316 350 350 345 343 341 339 334 329 326 322 314 308 306 305 303 303 306 309 310 311 311 309 306 303 300 297 294 292 290 289 289 289 290 289 287 284 279 273 267 263 259 260 263 265 269 272
135 138 140 142 140 137 135 130 125 119 114 107 101 95 86 65 37 321 281 277 284 307 336 345 344 341 339 337 334 329 325 324 319 312 307 305 304 304 306 310 312 314 313 312 309 305 301 298 295 293 292 292 292 292 293 293 294 293 290 285 279 273 269 265 264 264 265 267 270
141 142 144 144 136 131 125 121 116 111 103 95 86 76 62 36 347 308 293 286 308 331 340 335 334 333 332 331 331 330 328 324 319 314 310 308 307 309 311 315 316 315 314 311 307 304 302 301 301 300 301 301 301 301 300 299 298 297 295 292 287 282 278 274 272 269 268 267 269
144 144 143 136 127 122 120 116 110 104 96 87 76 60 38 7 338 322 316 319 339 344 339 331 331 331 333 335 336 334 329 322 317 314 312 312 313 314 316 318 318 315 312 308 311 314 316 316 314 313 312 311 310 308 306 304 302 299 297 295 294 291 288 283 279 276 274 272 270
142 140 135 128 123 119 115 111 106 101 95 84 68 47 20 353 335 328 332 345 348 344 340 335 336 338 342 344 339 333 325 315 311 310 311 313 315 318 320 321 319 316 313 310 317 321 323 325 324 322 319 317 315 312 310 307 303 301 298 296 296 296 295 292 286 281 276 275 273
138 133 130 126 121 117 112 109 106 101 93 77 54 32 5 332 316 331 352 359 347 341 339 342 343 345 346 344 337 330 321 312 307 307 309 312 315 318 320 321 321 318 316 316 322 325 326 327 326 325 323 320 318 316 314 311 308 304 301 298 297 297 297 296 293 287 281 275 276
134 131 128 123 117 113 111 108 101 94 86 71 50 20 330 296 308 358 11 2 344 339 340 349 347 346 344 341 332 323 315 309 307 306 306 308 313 315 317 317 319 318 318 321 324 326 327 328 327 327 326 323 321 318 316 314 311 309 306 302 299 295 293 291 291 289 287 285 288
137 132 127 120 115 113 109 100 92 87 81 68 48 337 294 292 359 17 13 357 348 347 348 348 345 343 342 336 322 312 307 304 304 305 307 309 310 311 313 315 316 318 320 323 326 328 328 329 329 329 328 327 323 319 316 314 314 312 309 305 300 295 291 287 287 291 296 303 307
136 131 126 121 118 113 105 93 90 88 83 73 20 288 290 356 25 20 11 1 357 355 349 340 339 341 335 324 310 305 302 302 302 305 309 313 313 313 314 315 315 317 320 324 327 329 330 330 330 330 329 329 326 323 320 317 315 313 310 305 300 295 290 287 292 301 310 317 317
132 128 125 120 116 109 99 89 88 85 77 62 286 323 11 26 21 15 8 360 352 344 335 331 335 328 318 306 303 302 302 300 302 306 311 314 315 315 316 318 317 317 321 325 328 330 331 331 331 331 330 330 328 324 321 319 315 312 308 304 298 292 289 292 302 313 320 322 317
127 123 119 115 109 102 93 80 75 70 65 50 50 43 36 29 14 3 352 344 329 324 325 334 327 313 302 296 296 297 299 300 305 309 311 313 315 315 316 316 315 315 320 326 329 331 332 332 332 332 331 331 330 328 324 319 314 309 304 300 295 292 293 302 315 321 321 318 315
118 116 113 109 104 96 84 67 59 56 59 73 61 48 36 20 352 324 312 312 322 327 330 331 319 309 303 300 299 299 301 304 307 309 310 312 313 313 314 315 315 316 321 327 330 332 333 333 333 333 332 332 330 328 324 317 311 305 299 295 295 297 303 316 321 320 317 315 315
109 108 107 105 101 91 73 57 49 49 61 70 56 44 29 2 335 322 320 323 325 323 316 309 304 300 299 300 301 303 305 305 307 308 310 312 312 312 313 316 315 318 323 328 331 333 334 334 334 333 332 333 332 329 323 314 308 304 302 302 305 311 316 322 321 319 317 316 314
109 106 103 101 96 86 70 51 40 46 53 51 40 31 20 1 343 334 329 324 312 294 282 278 278 278 279 283 290 296 301 305 307 309 310 311 311 313 314 316 315 320 324 328 331 333 334 334 334 334 333 334 333 328 321 312 309 308 311 314 319 323 326 325 323 320 318 315 309
115 110 104 97 90 81 70 52 42 48 49 39 20 9 1 353 334 319 311 307 302 291 278 270 265 267 271 275 280 290 299 305 307 308 309 310 312 314 314 313 309 316 322 327 331 333 334 334 334 334 334 335 333 328 321 317 315 316 319 322 324 326 326 325 322 319 315 310 304
120 115 110 101 91 82 73 66 63 53 44 29 7 352 342 331 309 294 290 298 303 296 288 280 279 282 287 290 293 297 302 304 306 307 308 310 314 314 312 309 306 313 320 326 330 332 334 334 334 334 335 335 333 329 325 323 321 321 322 324 325 325 325 322 318 314 309 303 298
121 118 115 109 104 100 101 108 75 52 35 10 348 332 322 315 298 287 281 290 299 294 288 285 288 291 294 297 299 299 299 299 302 305 308 311 312 311 309 307 305 311 318 324 329 331 333 333 333 334 335 334 333 330 327 324 322 322 322 322 322 322 320 316 311 306 301 296 293
120 117 117 117 121 131 143 133 88 58 21 335 308 295 291 298 290 282 274 265 275 283 287 289 292 293 293 295 298 298 298 298 300 304 307 308 308 307 306 306 306 309 315 322 326 329 331 332 333 334 335 334 332 330 326 323 321 321 321 321 319 317 314 310 305 300 295 291 294
119 118 120 124 134 145 150 132 106 93 323 298 295 294 289 285 273 267 261 250 248 263 276 286 289 290 293 298 301 302 302 302 303 303 304 304 302 304 306 307 307 308 312 318 323 326 329 331 332 333 334 333 332 329 325 322 320 320 319 318 315 311 308 304 300 296 293 291 298
120 120 123 131 142 148 147 137 162 200 221 259 289 290 282 268 262 261 260 253 246 253 266 277 285 289 294 301 303 304 304 305 305 304 301 299 300 305 309 308 306 305 308 313 318 322 326 329 331 333 334 332 332 329 325 321 319 318 316 314 311 307 304 300 297 295 296 297 302
119 122 126 134 144 146 146 148 209 227 231 245 265 266 263 260 263 264 264 265 263 265 271 280 286 291 296 302 303 304 305 305 305 303 300 299 300 304 307 305 303 302 303 306 312 318 323 328 330 332 333 332 331 329 325 320 317 315 313 310 307 304 302 300 298 297 298 300 301